[[{"header":{"parameterUnit":"m.s-1","parameterCategory":1,"la1":30.2991,"la2":30.254,"lo1":-89.0895,"lo2":-89.0444,"dy":0.0017,"dx":0.0017,"nx":28,"ny":28,"refTime":"2024-09-30T21:00:00:Z","depth":0,"parameterNumber":2,"parameterNumberName":"U-component_of_WINDS"},"data":[0,0,0,0,0,0,0,0,0,0,0,0,0,0,0,0,0,0,0,0,0,0,0,0,0,0,0,0,0,0,0,0,0,0,0,0,0,0,0,0,0,0,0,0,0,0,0,0,0,0,0,0,0,0,0,0,0,0,0.9292,0.9294,0,0.9425,0.9427,0.9428,0.9462,0.9461,0.946,0.946,0.9598,0.9602,0.9607,0,0,0,0,0,0,0,0,0,0,0,0,0,0.907,0.9074,0.9292,0.9294,0.9295,0.9425,0.9427,0.9428,0.9462,0.9461,0.946,0.9459,0.9597,0.9602,0.9607,0,0,0,0,0,0,0,0,0,0,0,0,0,0.9181,0.9075,0.9292,0.9328,0.9332,0.9424,0.9427,0.9429,0.9462,0.9461,0.946,0.9459,0.9595,0.9601,0.9608,0.9675,0,0,0.9629,0.9631,0,0,0,0,0,0,0,0,0.9175,0.9189,0.9321,0.9325,0.9331,0.9426,0.9399,0.9511,0.9463,0.9413,0.946,0.9458,0.9542,0.9553,0.9581,0.9681,0.9687,0.9629,0.9633,0.9636,0.9638,0,0,0,0,0,0,0,0.9167,0.9184,0.9345,0.9323,0.9329,0.9338,0.9352,0.9421,0.9483,0.9417,0.942,0.9435,0.9544,0.9574,0.9584,0.9689,0.9629,0.9635,0.9639,0.9642,0.9852,0.9853,0,0,0,0,0,0,0.9153,0.9177,0.9341,0.9349,0.9248,0.9343,0.9359,0.9396,0.9482,0.9494,0.9436,0.9436,0.9563,0.9576,0.9589,0.9673,0.9636,0.9642,0.9646,0.985,0.9852,0.9854,0,0,0,0,0,0,0.9148,0.9167,0.9335,0.9264,0.9286,0.9348,0.939,0.94,0.9429,0.9497,0.9508,0.9455,0.9563,0.958,0.9653,0.9679,0.9645,0.9651,0.9848,0.9851,0.9853,0.9842,0,0,0,0,0,0,0.9141,0.9165,0.919,0.9264,0.9289,0.9396,0.9391,0.9403,0.9441,0.9442,0.9517,0.9528,0.9563,0.9643,0.966,0.9687,0.9657,0.9846,0.9849,0.9852,0.984,0.9843,0.9846,0,0,0,0,0,0.9133,0.9182,0.9191,0.9211,0.9322,0.9397,0.9412,0.945,0.9442,0.9469,0.9512,0.9526,0.9673,0.965,0.9669,0.9699,0.9845,0.9848,0.9852,0.9839,0.9843,0.9846,0,0,0,0,0,0,0.9111,0.9193,0.9204,0.9278,0.933,0.9403,0.9437,0.9453,0.951,0.9509,0.9554,0.9571,0.9642,0.9678,0.9651,0.9769,0.9759,0.9766,0.9742,0.9747,0.975,0.974,0.9662,0,0,0,0,0,0.9114,0.9168,0.9237,0.9295,0.9321,0.9375,0.9409,0.9434,0.949,0.9513,0.9561,0.9616,0.9675,0.9713,0.977,0.9845,0.9863,0.9875,0.9878,0.988,0.9887,0.9929,0.9936,0.9865,0.9865,0.9865,0,0,0.9123,0.9174,0.9205,0.9292,0.9336,0.9391,0.9393,0.9451,0.9493,0.9522,0.9594,0.9632,0.9696,0.9771,0.9806,0.9803,0.991,0.9885,0.9886,0.9891,0.9934,0.994,0.9946,0.9867,0.9867,0.9867,0,0,0.9166,0.9209,0.9264,0.9307,0.9373,0.9408,0.9421,0.9491,0.9517,0.959,0.9613,0.9664,0.9763,0.9809,0.9845,0.9905,0.992,0.9922,0.9939,0.998,0.9985,0.9991,1.0013,1.002,0.9928,0.9928,0.9928,0,0.9168,0.9251,0.929,0.9347,0.9385,0.9413,0.9468,0.9509,0.959,0.9616,0.9612,0.9738,0.9783,0.9869,0.9883,0.9911,0.9928,0.9914,0.9981,0.9987,0.9992,1.0014,1.0022,0.9928,0.9928,0.9928,0.9928,0,0.9251,0.9308,0.9344,0.9421,0.9463,0.9519,0.9567,0.9605,0.9626,0.9662,0.9736,0.9792,0.9861,0.9883,0.9905,0.9972,0.9969,0.9972,0.9963,0.9998,1.0019,1.0028,0.9928,0.9928,0.9928,0.9928,0,0,0.9284,0.9381,0.9394,0.9429,0.9504,0.9549,0.9607,0.9674,0.9706,0.9762,0.9812,0.9895,0.9899,0.994,0.9967,1.0003,1.0048,1.0002,1.0004,1.0009,1.0126,1.0124,1.0132,1.0058,1.006,1.0061,1.0121,0,0.9337,0.944,0.9476,0.9562,0.9615,0.9643,0.9693,0.9744,0.978,0.9831,0.987,0.9929,0.9929,0.9954,0.9991,1.0034,1.0072,1.003,1.0106,1.0108,1.0089,1.0143,1.0141,1.0195,1.0129,1.0131,1.0132,0,0.9413,0.9468,0.9558,0.9626,0.965,0.9694,0.9759,0.9808,0.9867,0.989,0.9936,0.996,1.0022,1.0009,1.0096,1.0067,1.01,1.0126,1.0129,1.0138,1.0122,1.0155,1.0213,1.0221,1.0145,1.0144,1.0143,0,0.9428,0.9526,0.9592,0.9622,0.9703,0.9733,0.9769,0.9827,0.9865,0.9921,0.9947,1.001,1.0045,1.0094,1.0135,1.0122,1.0219,1.0209,1.024,1.0239,1.026,1.0258,1.0325,1.028,1.028,1.028,1.028,0,0.9484,0.9539,0.9601,0.9642,0.9704,0.9745,0.9806,0.9843,0.9894,0.9944,0.9971,1.0017,1.0068,1.0121,1.0154,1.0221,1.0237,1.0258,1.0266,1.0256,1.0253,1.0279,1.0276,1.0282,1.0282,1.0281,1.0281,0,0.9513,0.9556,0.9631,0.9701,0.972,0.9763,0.9823,0.9865,0.9901,0.9963,0.998,1.0037,1.0101,1.0146,1.0229,1.0251,1.0323,1.0331,1.0303,1.0307,1.0336,1.0333,1.0422,1.0437,1.0381,1.0381,1.0382,0,0.9546,0.9588,0.9662,0.9697,0.9732,0.9788,0.9826,0.9869,0.9909,0.9979,1.0012,1.0078,1.0132,1.0233,1.0283,1.0346,1.0356,1.0383,1.0366,1.0354,1.0357,1.0354,1.0359,1.0385,1.0386,1.0386,1.0386,0,0.96,0.9619,0.9674,0.9736,0.9781,0.9833,0.9884,0.9911,0.9963,1.0006,1.0071,1.0113,1.0197,1.0262,1.033,1.0368,1.0386,1.0391,1.0402,1.0392,1.0375,1.0385,1.0311,1.0389,1.0389,1.0389,1.0388,1.0388,0.9633,0.9672,0.973,0.979,0.9833,0.988,0.9923,0.9964,1.0018,1.0089,1.0111,1.0179,1.0238,1.0331,1.0369,1.0423,1.0422,1.0437,1.0442,1.0445,1.0445,1.0365,1.0436,1.0436,1.0436,1.0436,1.0436,0,0.9689,0.9727,0.9782,0.9853,0.99,0.9912,0.997,1.0009,1.0068,1.0121,1.0173,1.0248,1.0312,1.0366,1.0431,1.0464,1.0474,1.048,1.0479,1.0487,1.0442,1.0426,1.0471,1.0471,1.0471,1.0471,1.0471,1.0471,0.9724,0.979,0.9817,0.9905,0.9944,1.001,1.0042,1.0086,1.0129,1.0211,1.0263,1.0297,1.0351,1.0421,1.0479,1.0494,1.0517,1.0521,1.0537,1.0494,1.049,1.0486,1.0472,1.0525,1.0525,1.0578,1.0579,1.0579]},{"header":{"parameterUnit":"m.s-1","parameterCategory":1,"la1":30.2991,"la2":30.254,"lo1":-89.0895,"lo2":-89.0444,"dy":0.0017,"dx":0.0017,"nx":28,"ny":28,"refTime":"2024-09-30T21:00:00:Z","depth":0,"parameterNumber":3,"parameterNumberName":"V-component_of_WINDS"},"data":[0,0,0,0,0,0,0,0,0,0,0,0,0,0,0,0,0,0,0,0,0,0,0,0,0,0,0,0,0,0,0,0,0,0,0,0,0,0,0,0,0,0,0,0,0,0,0,0,0,0,0,0,0,0,0,0,0,0,-0.1317,-0.1317,0,-0.1362,-0.1363,-0.1363,-0.1419,-0.142,-0.142,-0.1421,-0.1469,-0.1469,-0.1469,0,0,0,0,0,0,0,0,0,0,0,0,0,-0.128,-0.1281,-0.1317,-0.1318,-0.1318,-0.1362,-0.1363,-0.1363,-0.1419,-0.142,-0.1421,-0.1422,-0.1468,-0.1469,-0.1469,0,0,0,0,0,0,0,0,0,0,0,0,0,-0.1308,-0.1281,-0.1317,-0.1351,-0.1355,-0.1362,-0.1363,-0.1363,-0.1418,-0.142,-0.1421,-0.1422,-0.1468,-0.1469,-0.147,-0.1447,0,0,-0.1472,-0.1472,0,0,0,0,0,0,0,0,-0.1306,-0.1309,-0.1345,-0.1349,-0.1353,-0.1386,-0.1367,-0.1392,-0.1418,-0.1394,-0.1421,-0.1423,-0.144,-0.1443,-0.1449,-0.145,-0.1452,-0.1472,-0.1472,-0.1472,-0.1472,0,0,0,0,0,0,0,-0.1304,-0.1307,-0.1335,-0.1346,-0.135,-0.1364,-0.137,-0.1372,-0.1409,-0.1396,-0.14,-0.1405,-0.1442,-0.1448,-0.145,-0.1452,-0.1472,-0.1472,-0.1473,-0.1473,-0.1437,-0.1436,0,0,0,0,0,0,-0.1297,-0.1305,-0.1333,-0.1336,-0.1332,-0.1364,-0.137,-0.1374,-0.1409,-0.1416,-0.1404,-0.1407,-0.1446,-0.1449,-0.1452,-0.1428,-0.1472,-0.1473,-0.1473,-0.1439,-0.1437,-0.1436,0,0,0,0,0,0,-0.1296,-0.1299,-0.1332,-0.1322,-0.1327,-0.1363,-0.1367,-0.1374,-0.138,-0.1415,-0.1422,-0.1403,-0.1447,-0.1451,-0.1448,-0.1431,-0.1473,-0.1474,-0.144,-0.1438,-0.1436,-0.138,0,0,0,0,0,0,-0.1295,-0.1298,-0.129,-0.1321,-0.1327,-0.1326,-0.1366,-0.1374,-0.1381,-0.1386,-0.1416,-0.1422,-0.1449,-0.1447,-0.1449,-0.1432,-0.1474,-0.1442,-0.1439,-0.1437,-0.1384,-0.1377,-0.1371,0,0,0,0,0,-0.1293,-0.1273,-0.1289,-0.1292,-0.1318,-0.1325,-0.1329,-0.1359,-0.1379,-0.1371,-0.1394,-0.1421,-0.1432,-0.1446,-0.1449,-0.1432,-0.1443,-0.144,-0.1437,-0.1387,-0.1378,-0.1371,0,0,0,0,0,0,-0.1238,-0.1277,-0.1296,-0.1285,-0.1301,-0.1334,-0.1325,-0.1349,-0.136,-0.1365,-0.1403,-0.1409,-0.1401,-0.1417,-0.1431,-0.1413,-0.1442,-0.1439,-0.1403,-0.1395,-0.1388,-0.1385,-0.1475,0,0,0,0,0,-0.1225,-0.1227,-0.1261,-0.1248,-0.1256,-0.1289,-0.1293,-0.1315,-0.1334,-0.1341,-0.1364,-0.1381,-0.1389,-0.1393,-0.1402,-0.1387,-0.1394,-0.1377,-0.137,-0.1365,-0.1362,-0.1355,-0.1348,-0.1426,-0.1426,-0.1426,0,0,-0.1197,-0.1219,-0.1218,-0.1238,-0.1253,-0.1255,-0.1294,-0.1295,-0.1296,-0.1342,-0.134,-0.1357,-0.1379,-0.1369,-0.1366,-0.1382,-0.1342,-0.1361,-0.1356,-0.1356,-0.1351,-0.1344,-0.1337,-0.1424,-0.1424,-0.1424,0,0,-0.1148,-0.1165,-0.1156,-0.117,-0.1192,-0.1215,-0.1212,-0.1242,-0.1255,-0.1253,-0.1287,-0.129,-0.1302,-0.1317,-0.1325,-0.1281,-0.1307,-0.1283,-0.1248,-0.1241,-0.1235,-0.123,-0.1214,-0.1208,-0.128,-0.128,-0.128,0,-0.1111,-0.1115,-0.1148,-0.1146,-0.1154,-0.1194,-0.1186,-0.1198,-0.1222,-0.1227,-0.1244,-0.126,-0.1277,-0.1272,-0.1261,-0.1267,-0.1266,-0.128,-0.1233,-0.1228,-0.1224,-0.1209,-0.1203,-0.1277,-0.1277,-0.1278,-0.1278,0,-0.1068,-0.107,-0.106,-0.1082,-0.1089,-0.1083,-0.1116,-0.1119,-0.1141,-0.1161,-0.1159,-0.1182,-0.1196,-0.1197,-0.1218,-0.1194,-0.1203,-0.1226,-0.1256,-0.1213,-0.1199,-0.1194,-0.1273,-0.1274,-0.1275,-0.1276,0,0,-0.0985,-0.1025,-0.1021,-0.1031,-0.1059,-0.1062,-0.1058,-0.1072,-0.1073,-0.1089,-0.1087,-0.1096,-0.1118,-0.1127,-0.1151,-0.1145,-0.1108,-0.1169,-0.117,-0.1156,-0.1083,-0.1065,-0.1058,-0.1125,-0.1125,-0.1124,-0.1081,0,-0.0941,-0.0937,-0.0967,-0.0955,-0.0957,-0.0996,-0.0993,-0.1009,-0.1029,-0.1034,-0.1055,-0.1061,-0.1089,-0.1095,-0.1091,-0.1113,-0.1094,-0.1117,-0.1124,-0.1124,-0.1117,-0.1051,-0.1033,-0.0991,-0.1076,-0.1075,-0.1075,0,-0.0889,-0.09,-0.0888,-0.0916,-0.0919,-0.0915,-0.093,-0.0934,-0.0954,-0.0969,-0.0979,-0.1006,-0.1005,-0.1034,-0.1033,-0.1048,-0.1053,-0.1065,-0.1064,-0.1065,-0.1096,-0.1051,-0.0979,-0.0972,-0.1067,-0.1068,-0.1068,0,-0.0829,-0.0842,-0.0837,-0.0844,-0.0877,-0.0874,-0.0887,-0.0908,-0.0915,-0.0928,-0.0932,-0.0945,-0.0952,-0.0961,-0.0991,-0.1009,-0.0987,-0.1018,-0.0999,-0.0998,-0.0992,-0.0992,-0.0919,-0.0996,-0.0996,-0.0996,-0.0996,0,-0.0776,-0.0767,-0.081,-0.0807,-0.0798,-0.0832,-0.0823,-0.084,-0.0859,-0.086,-0.0894,-0.0895,-0.0934,-0.0939,-0.0962,-0.0958,-0.0961,-0.0973,-0.0979,-0.0969,-0.0968,-0.0973,-0.0976,-0.0994,-0.0995,-0.0995,-0.0995,0,-0.0708,-0.0736,-0.0733,-0.0764,-0.0771,-0.0763,-0.079,-0.0789,-0.081,-0.0811,-0.0813,-0.0846,-0.0854,-0.0884,-0.09,-0.0915,-0.0903,-0.0916,-0.0896,-0.09,-0.0879,-0.088,-0.0807,-0.0799,-0.088,-0.0879,-0.0879,0,-0.0672,-0.0666,-0.0696,-0.0699,-0.0711,-0.0715,-0.0721,-0.0755,-0.076,-0.0782,-0.0778,-0.0788,-0.0797,-0.0807,-0.0834,-0.0845,-0.0858,-0.0832,-0.086,-0.085,-0.0857,-0.0857,-0.0856,-0.0825,-0.0824,-0.0823,-0.0822,0,-0.0605,-0.0619,-0.0627,-0.0639,-0.0645,-0.0656,-0.067,-0.067,-0.0708,-0.0712,-0.072,-0.0727,-0.0742,-0.0751,-0.0767,-0.0782,-0.0808,-0.0813,-0.0809,-0.0799,-0.0788,-0.0793,-0.0879,-0.0815,-0.0816,-0.0816,-0.0817,-0.0817,-0.0552,-0.0548,-0.0568,-0.0575,-0.0589,-0.0601,-0.06,-0.0621,-0.0628,-0.0642,-0.0662,-0.0667,-0.0688,-0.0712,-0.0724,-0.0729,-0.0744,-0.0738,-0.0737,-0.0735,-0.073,-0.0787,-0.0732,-0.0732,-0.0733,-0.0733,-0.0733,0,-0.0486,-0.0501,-0.0507,-0.0525,-0.053,-0.0554,-0.057,-0.0573,-0.0577,-0.0594,-0.0602,-0.0611,-0.062,-0.0647,-0.0659,-0.0658,-0.067,-0.066,-0.066,-0.0663,-0.0716,-0.0718,-0.0649,-0.0649,-0.0649,-0.0649,-0.0649,-0.0649,-0.0453,-0.0448,-0.0464,-0.0466,-0.0482,-0.0486,-0.0493,-0.0504,-0.0518,-0.0525,-0.0533,-0.055,-0.0571,-0.0585,-0.0595,-0.0602,-0.0605,-0.059,-0.0602,-0.0651,-0.0659,-0.0667,-0.0669,-0.0591,-0.0591,-0.0548,-0.0548,-0.0548]}]]